Regional Weather Roundup
Issued by NWS

Home | Current Version | Previous Version | Text Only | Print | Product List | Glossary On
Versions: 1 2 3 4 5 6 7 8 9 10 11 12 13 14 15 16 17 18 19 20 21 22 23 24 25 26 27 28 29 30 31 32 33 34 35 36 37 38 39 40 41 42 43 44 45 46 47 48 49 50
000
ASUS43 KLSX 250507
RWRMO

WEATHER SUMMARY FOR MISSOURI
NATIONAL WEATHER SERVICE SPRINGFIELD MO
1100 PM CST SAT FEB 24 2018

NOTE: "FAIR" INDICATES FEW OR NO CLOUDS BELOW 12,000 FEET WITH NO
       SIGNIFICANT WEATHER AND/OR OBSTRUCTIONS TO VISIBILITY.
       CURRENT SKY AND/OR WEATHER CONDITIONS ARE NOT AVAILABLE FOR
       CHILLICOTHE AND FARMINGTON.

MOZ001>031-035>038-043-044-053-054-250600-
...NORTHERN AND WESTERN MISSOURI...

CITY           SKY/WX    TMP DP  RH WIND       PRES   REMARKS
KANSAS CTY INT CLEAR     31  28  89 SW12      29.88R WCI  22
KANSAS C DTWN  CLEAR     34  27  75 SW9       29.90R WCI  27
LEE`S SUMMIT   CLEAR     32  29  88 SW8       29.90S WCI  25
ST JOSEPH      CLEAR     31  29  92 SW9       29.87R WCI  23
CHILLICOTHE      N/A     32  27  81 SW5       29.86R WCI  27
KIRKSVILLE     CLOUDY    33  29  85 W17G32    29.80R WCI  22

$$
MOZ066>068-077>081-088>096-101>105-250600-
...SOUTHWEST MISSOURI...

CITY           SKY/WX    TMP DP  RH WIND       PRES   REMARKS
SPRINGFIELD    CLEAR     38  33  82 W9        29.97R
JOPLIN         CLEAR     33  32  96 S6        30.00R WCI  28

$$
MOZ032>034-039>042-045>050-055>058-069>072-250600-
...CENTRAL MISSOURI...

CITY           SKY/WX    TMP DP  RH WIND       PRES   REMARKS
COLUMBIA       CLOUDY    38  34  85 W20G25    29.88R WCI  28
JEFFERSON CITY CLOUDY    40  32  73 W24G33    29.91R WCI  29
ROLLA          CLOUDY    39  36  89 W20G33    29.90R WCI  29
SEDALIA        CLOUDY    37  32  82 W12G22    29.93R WCI  29
WHITEMAN AFB   PTCLDY   N/A N/A N/A W13       29.90R
WARRENSBURG    CLEAR     34  30  86 SW12G18   29.93R WCI  25
OSAGE BEACH    CLOUDY    38  31  76 W12G28    29.95R

$$
MOZ051-052-059>065-250600-
...EAST CENTRAL MISSOURI...

CITY           SKY/WX    TMP DP  RH WIND       PRES   REMARKS
ST LOUIS INTL  CLOUDY    46  40  79 W28G37    29.80R
SPIRIT OF STL  CLOUDY    46  40  79 W22G37    29.80R
ST CHARLES       N/A     46  38  73 W26G39    29.79R

$$
MOZ072>076-082>087-097>100-106>115-250600-
...SOUTH CENTRAL AND SOUTHEAST MISSOURI...

CITY           SKY/WX    TMP DP  RH WIND       PRES   REMARKS
CAPE GIRARDEAU FAIR      61  53  75 W23G33    29.77R
FARMINGTON     CLOUDY    46  40  79 W13G26    29.85R
POPLAR BLUFF   FAIR      58  48  69 W18G28    29.83R
WEST PLAINS    CLOUDY    44  37  76 W16G29    29.92R

$$



USA.gov is the U.S. government's official web portal to all federal, state and local government web resources and services.